Find Starlink 33809

NORAD ID: 63508 Int'l Des: 2025-071 Owner: SPXS Country: US Constellation: starlink operational
LEOCIRCULAR

現在のビュー

3D地球を読み込み中...

About Starlink 33809

Starlink 33809 (NORAD 63508) is a starlink constellation satellite (v2 mini) launched Apr 7, 2025 by SPXS of US. It operates in LEO, CIRCULAR orbit with a mass of 575.00 kg.

Starlink 33809について

説明を読み込み中...

次回通過

Passes for default location (London). Set your location on the main map for personalized predictions.

高度履歴

Loading altitude history...

軌道要素

1 63508U 25071R 26194.49925081 .00009673 00000-0 33820-3 0 9991
2 63508 53.1590 275.3907 0001164 93.5091 266.6042 15.30207080 71975
Epoch: Jul 13, 2026 • Age: 21 hours

現在のステータス

高度 477.9 km
遠地点 / 近地点 N/A
速度 7.63 km/s
衛星直下点 39.38°N, 12.35°W
打ち上げ日 Apr 7, 2025
運用期間 1.2 years
タイプ internet

技術仕様

分類 Payload
質量 575.00 kg
乾燥質量 530.00 kg
総質量 575.00 kg
長さ 0.30 m
直径 4.10 m
スパン 29.00 m
形状 Box + pan
製造者 SPXS
バスタイプ Starlink V2MO
フェーズステータス In Orbit
所有者/国 SPXS/US

Most Searched